Weather History for Tampa Knight Airport, FL

Change the Weather History Date:

Tuesday, September 17, 2013

  Actual Average (KTPA) Record (KTPA)
Temperature  
Mean Temperature 82 °F 82 °F  
Max Temperature 91 °F 89 °F 95 °F (1942)
Min Temperature 73 °F 75 °F 66 °F (1895)
Degree Days  
Heating Degree Days 0 0  
Month to date heating degree days 0  
Since 1 July heating degree days 0  
Cooling Degree Days 17 17  
Month to date cooling degree days 297  
Year to date cooling degree days 2812  
Growing Degree Days 32 (Base 50)    
Moisture  
Dew Point 71 °F    
Average Humidity 78    
Maximum Humidity 94    
Minimum Humidity 46    
Precipitation  
Precipitation 0.05 in 0.21 in 2.23 in (2000)
Month to date precipitation 4.05  
Year to date precipitation 37.77  
Sea Level Pressure  
Sea Level Pressure 30.01 in    
Wind  
Wind Speed 7 mph (ENE)    
Max Wind Speed 17 mph    
Max Gust Speed 24 mph    
Visibility 10 miles    
Events Rain    
T = Trace of Precipitation, MM = Missing Value Source: NWS Daily Summary

Daily Weather History Graph

Daily Weather History Graph

Search for Another Location

Airport:

Trip Planner

Search our weather history database for the weather conditions in past years. The results will help you decide how hot, cold, wet, or windy it might be!

Date:

Astronomy

Sep. 17, 2013 Rise Set
Actual Time 7:16 AM EDT 7:31 PM EDT
Civil Twilight 6:52 AM EDT 7:55 PM EDT
Nautical Twilight 6:25 AM EDT 8:22 PM EDT
Astronomical Twilight 5:57 AM EDT 8:50 PM EDT
Moon 6:13 PM EDT (9/17) 5:16 AM EDT (9/17)
Length of Visible Light 13h 02m
Length of Day
12h 15m
Waxing Gibbous, 96% of the Moon is Illuminated
Sep 17
Waxing Gibbous
Sep 19
Full
Sep 26
Last Quarter
Oct 4
New
Oct 11
First Quarter

Hourly Weather History & Observations

Time (EDT) Temp. Heat Index Dew Point Humidity Pressure Visibility Wind Dir Wind Speed Gust Speed Precip Events Conditions
12:15 AM 73.4 °F - 69.8 °F 88% 30.04 in 10.0 mi East 4.6 mph - N/A   Clear
12:35 AM 73.4 °F - 69.8 °F 88% 30.04 in 10.0 mi ENE 4.6 mph - N/A   Clear
12:55 AM 73.4 °F - 69.8 °F 88% 30.03 in 10.0 mi ENE 4.6 mph - N/A   Clear
1:15 AM 73.4 °F - 69.8 °F 88% 30.02 in 10.0 mi ENE 4.6 mph - N/A   Clear
1:35 AM 73.4 °F - 69.8 °F 88% 30.02 in 10.0 mi ENE 4.6 mph - N/A   Clear
1:55 AM 73.4 °F - 69.8 °F 88% 30.02 in 10.0 mi ENE 4.6 mph - N/A   Clear
2:15 AM 73.4 °F - 69.8 °F 88% 30.02 in 10.0 mi East 4.6 mph - N/A   Clear
2:35 AM 73.4 °F - 69.8 °F 88% 30.02 in 10.0 mi East 3.5 mph - N/A   Clear
2:55 AM 73.4 °F - 69.8 °F 88% 30.01 in 10.0 mi NE 4.6 mph - N/A   Clear
3:15 AM 73.4 °F - 69.8 °F 88% 30.00 in 10.0 mi East 4.6 mph - N/A   Clear
3:35 AM 73.4 °F - 69.8 °F 88% 30.00 in 10.0 mi ENE 5.8 mph - N/A   Clear
3:55 AM 73.4 °F - 69.8 °F 88% 30.01 in 10.0 mi NE 5.8 mph - N/A   Clear
4:15 AM 73.4 °F - 69.8 °F 88% 30.01 in 10.0 mi NNE 4.6 mph - N/A   Clear
4:35 AM 73.4 °F - 69.8 °F 88% 30.01 in 10.0 mi NE 5.8 mph - N/A   Clear
4:55 AM 73.4 °F - 69.8 °F 88% 30.01 in 10.0 mi NE 8.1 mph - N/A   Clear
5:15 AM 73.4 °F - 71.6 °F 94% 30.01 in 10.0 mi NE 5.8 mph - N/A   Clear
5:35 AM 73.4 °F - 71.6 °F 94% 30.01 in 10.0 mi NE 6.9 mph - N/A   Clear
5:55 AM 73.4 °F - 71.6 °F 94% 30.01 in 10.0 mi NE 9.2 mph - N/A   Clear
6:15 AM 73.4 °F - 71.6 °F 94% 30.01 in 10.0 mi NE 6.9 mph - N/A   Clear
6:35 AM 73.4 °F - 71.6 °F 94% 30.02 in 10.0 mi ENE 6.9 mph - N/A   Clear
6:55 AM 73.4 °F - 71.6 °F 94% 30.03 in 10.0 mi NE 8.1 mph - N/A   Clear
7:15 AM 73.4 °F - 71.6 °F 94% 30.04 in 10.0 mi NE 8.1 mph - N/A   Clear
7:35 AM 73.4 °F - 71.6 °F 94% 30.04 in 10.0 mi NE 8.1 mph - N/A   Clear
7:55 AM 73.4 °F - 71.6 °F 94% 30.04 in 10.0 mi NE 6.9 mph - N/A   Clear
8:15 AM 75.2 °F - 71.6 °F 89% 30.04 in 10.0 mi NE 8.1 mph - N/A   Clear
8:35 AM 77.0 °F - 71.6 °F 83% 30.05 in 10.0 mi NE 6.9 mph - N/A   Clear
8:55 AM 77.0 °F - 71.6 °F 83% 30.06 in 10.0 mi NE 9.2 mph - N/A   Clear
9:15 AM 78.8 °F - 71.6 °F 78% 30.06 in 10.0 mi NE 10.4 mph - N/A   Clear
9:35 AM 80.6 °F 84.6 °F 71.6 °F 74% 30.06 in 10.0 mi NE 8.1 mph - N/A   Clear
9:55 AM 80.6 °F 84.6 °F 71.6 °F 74% 30.06 in 10.0 mi ENE 10.4 mph - N/A   Clear
10:15 AM 82.4 °F 87.2 °F 71.6 °F 70% 30.06 in 10.0 mi ENE 9.2 mph - N/A   Scattered Clouds
10:35 AM 82.4 °F 87.2 °F 71.6 °F 70% 30.06 in 10.0 mi East 6.9 mph - N/A   Scattered Clouds
10:55 AM 84.2 °F 89.6 °F 71.6 °F 66% 30.06 in 10.0 mi ENE 9.2 mph - N/A   Scattered Clouds
11:15 AM 86.0 °F 91.8 °F 71.6 °F 62% 30.06 in 10.0 mi ENE 9.2 mph - N/A   Scattered Clouds
11:35 AM 86.0 °F 91.8 °F 71.6 °F 62% 30.07 in 10.0 mi ENE 9.2 mph - N/A   Scattered Clouds
11:55 AM 86.0 °F 90.4 °F 69.8 °F 58% 30.06 in 10.0 mi East 10.4 mph - N/A   Scattered Clouds
12:15 PM 87.8 °F 92.6 °F 69.8 °F 55% 30.05 in 10.0 mi ENE 12.7 mph - N/A   Mostly Cloudy
12:35 PM 87.8 °F 92.6 °F 69.8 °F 55% 30.04 in 10.0 mi ENE 9.2 mph 12.7 mph N/A   Mostly Cloudy
12:55 PM 87.8 °F 91.4 °F 68.0 °F 52% 30.04 in 10.0 mi East 9.2 mph - N/A   Scattered Clouds
1:15 PM 86.0 °F 89.4 °F 68.0 °F 55% 30.03 in 10.0 mi East 10.4 mph - N/A   Scattered Clouds
1:35 PM 87.8 °F 91.4 °F 68.0 °F 52% 30.01 in 10.0 mi East 9.2 mph - N/A   Scattered Clouds
1:55 PM 89.6 °F 94.7 °F 69.8 °F 52% 30.00 in 10.0 mi ENE 8.1 mph - N/A   Scattered Clouds
2:15 PM 87.8 °F 91.4 °F 68.0 °F 52% 30.00 in 10.0 mi ENE 8.1 mph 16.1 mph N/A   Scattered Clouds
2:35 PM 87.8 °F 91.4 °F 68.0 °F 52% 29.98 in 10.0 mi NE 9.2 mph - N/A   Scattered Clouds
2:55 PM 91.4 °F 95.4 °F 68.0 °F 46% 29.98 in 10.0 mi ENE 13.8 mph 17.3 mph N/A   Clear
3:15 PM 91.4 °F 95.4 °F 68.0 °F 46% 29.97 in 10.0 mi East 16.1 mph 24.2 mph N/A   Scattered Clouds
3:35 PM 84.2 °F 88.4 °F 69.8 °F 62% 29.97 in 10.0 mi ESE 16.1 mph 21.9 mph N/A   Mostly Cloudy
3:55 PM 87.8 °F 92.6 °F 69.8 °F 55% 29.96 in 10.0 mi ESE 13.8 mph - N/A   Scattered Clouds
4:15 PM 87.8 °F 92.6 °F 69.8 °F 55% 29.96 in 10.0 mi ESE 13.8 mph 17.3 mph N/A   Scattered Clouds
4:35 PM 87.8 °F 92.6 °F 69.8 °F 55% 29.97 in 10.0 mi ESE 9.2 mph - N/A   Scattered Clouds
4:55 PM 87.8 °F 91.4 °F 68.0 °F 52% 29.96 in 10.0 mi ESE 9.2 mph 18.4 mph N/A   Scattered Clouds
5:15 PM 87.8 °F 91.4 °F 68.0 °F 52% 29.96 in 10.0 mi East 12.7 mph 19.6 mph N/A   Scattered Clouds
5:35 PM 82.4 °F 86.3 °F 69.8 °F 66% 29.98 in 10.0 mi ENE 16.1 mph 23.0 mph N/A   Mostly Cloudy
5:55 PM 77.0 °F - 71.6 °F 83% 29.98 in 7.0 mi ENE 17.3 mph 23.0 mph 0.02 in Rain Light Rain
6:15 PM 77.0 °F - 71.6 °F 83% 29.98 in 7.0 mi NE 9.2 mph - 0.01 in Rain Light Rain
6:35 PM 77.0 °F - 71.6 °F 83% 29.98 in 10.0 mi East 10.4 mph - 0.02 in   Overcast
6:55 PM 77.0 °F - 71.6 °F 83% 29.98 in 5.0 mi ESE 12.7 mph 20.7 mph 0.02 in Rain Light Rain
7:15 PM 77.0 °F - 73.4 °F 89% 29.99 in 10.0 mi ESE 9.2 mph - 0.01 in   Scattered Clouds
7:35 PM 77.0 °F - 71.6 °F 83% 30.00 in 10.0 mi SE 9.2 mph 18.4 mph 0.01 in   Scattered Clouds
7:55 PM 75.2 °F - 71.6 °F 89% 29.99 in 10.0 mi ESE 5.8 mph - 0.01 in   Mostly Cloudy
8:15 PM 75.2 °F - 71.6 °F 89% 29.99 in 10.0 mi East 9.2 mph - N/A   Scattered Clouds
8:35 PM 75.2 °F - 71.6 °F 89% 29.98 in 10.0 mi East 5.8 mph - N/A   Clear
8:55 PM 75.2 °F - 71.6 °F 89% 29.98 in 10.0 mi East 8.1 mph - N/A   Clear
9:15 PM 75.2 °F - 71.6 °F 89% 29.98 in 10.0 mi East 6.9 mph - N/A   Clear
9:35 PM 75.2 °F - 71.6 °F 89% 30.00 in 10.0 mi East 6.9 mph - N/A   Clear
9:55 PM 73.4 °F - 71.6 °F 94% 30.01 in 10.0 mi East 6.9 mph - N/A   Clear
10:15 PM 73.4 °F - 71.6 °F 94% 30.01 in 10.0 mi East 4.6 mph - N/A   Clear
10:35 PM 75.2 °F - 71.6 °F 89% 30.01 in 10.0 mi East 5.8 mph - N/A   Clear
10:55 PM 73.4 °F - 71.6 °F 94% 30.02 in 10.0 mi East 4.6 mph - N/A   Clear
11:15 PM 73.4 °F - 71.6 °F 94% 30.02 in 10.0 mi East 6.9 mph - N/A   Clear
11:35 PM 75.2 °F - 71.6 °F 89% 30.02 in 10.0 mi East 5.8 mph - N/A   Clear
11:55 PM 75.2 °F - 71.6 °F 89% 30.02 in 10.0 mi East 5.8 mph - N/A   Clear